Simultaneous Nadir Overpasses (SNOs) Predictions

Prediction of SNOs between NOAA-19 and TERRA Satellite Orbit:

Table of predicted SNOs for the next 14.0 days since TLE Epoch: 11/18/2023
Index Date (NOAA-19) Time (NOAA-19) Lat,Lon (NOAA-19) SZA (NOAA-19 ) Date (TERRA) Time (TERRA) Lat,Lon (TERRA) SZA (TERRA ) Distance(km) Time Diff (sec)
1 11/19/2023 07:55:50 -80.66, -90.30 78.58 11/19/2023 07:56:20 -80.65, -90.44 78.60 3.10 30
2 11/19/2023 08:46:53 80.68, 77.42 101.49 11/19/2023 08:45:40 80.68, 77.59 101.48 3.11 73
3 11/21/2023 11:46:12 80.67, 32.32 101.92 11/21/2023 11:46:12 80.67, 32.30 101.92 0.36 0
4 11/23/2023 14:45:32 80.64, -13.19 102.28 11/23/2023 14:46:44 80.65, -13.07 102.33 2.71 72
5 11/23/2023 15:36:25 -80.66, 154.71 77.64 11/23/2023 15:36:06 -80.66, 154.73 77.65 0.43 19
6 11/25/2023 18:35:45 -80.63, 109.26 77.31 11/25/2023 18:36:38 -80.63, 109.26 77.29 0.04 53
7 11/25/2023 19:26:46 80.67, -82.62 102.81 11/25/2023 19:25:58 80.67, -82.70 102.79 1.28 48
8 11/27/2023 22:26:06 80.63,-128.26 103.09 11/27/2023 22:26:30 80.63,-128.25 103.10 0.31 24
9 11/27/2023 23:16:59 -80.67, 39.89 76.80 11/27/2023 23:15:51 -80.67, 39.85 76.83 0.80 68



Historial Predications of SNOs between NOAA-19 and TERRA
